Reflectivity
-20 -20 -20 -20 -20 -20 -20 -20 -20 -20 -20 -20 -20 -20 -20 -20 -20 -20 -20 -20 -20 -20 -20 -20 -20 -20 -20 -20 -20 -20 -20 -20 -20 -20 -20 -20 -20 -20 -20 -20 -20 -20 -20 -20
-20 -20 -20 -20 -20 -20 -20 -20 -20 -20 -20 -20 -20 -20 -20 -20 -20 -20 -20 -20 -20 -20 -20 -20 -20 -20 -20 -20 -20 -20 -20 -20 -20 -20 -20 -20 -20 -20 -20 -20 -20 -20 -20 -20
-20 -20 -20 -20 -20 -20 -20 -20 -20 -20 -20 -20 -20 -20 -20 -20 -20 -20 -20 -20 -20 -20 -20 -20 -20 -20 -20 -20 -20 -20 -15 -20 -20 -20 -20 -20 -20 -20 -20 -20 -20 -20 -20 -20
-20 -20 -20 -20 -20 -20 -20 -20 -20 -20 -20 -20 -20 -20 -20 -20 -20 -20 -20 -20 -20 -20 -20 -20 -20 -20 -20 -20 -20 6 -2 -20 -20 -20 -20 -20 -20 -20 -20 -20 -20 -20 -20 -20
-20 -20 -20 -20 -20 -20 -20 -20 -20 -20 -20 -20 -20 -20 -20 -20 -20 -20 -20 -20 -20 -20 -20 -20 -20 -20 -20 -20 -20 -20 -20 -20 -20 -20 -20 -20 -20 -20 -20 -20 -20 -20 -20 -20
-20 -20 -20 -20 -20 -20 -20 -20 -20 -20 -20 -20 -20 -20 -20 -20 -20 -20 -20 -20 -20 -20 -20 -20 -20 -20 -20 -20 -20 -20 -20 -20 -20 -19 -6 -20 -20 -20 -20 -20 -20 -20 -20 -20
-20 -20 -20 -20 -20 -20 -20 -20 -20 -20 -20 -20 -20 -20 -20 -20 -20 -20 -20 -20 -20 -20 -20 -20 -20 -20 -20 -20 -20 -20 -20 -20 -20 -11 -12 -20 16 -2 -13 -15 -20 -20 -20 -20
-20 -20 -20 -20 -20 -20 -20 -20 -20 -20 -20 -20 -20 -20 -20 -20 -20 -20 -20 -20 -20 -20 -20 -20 -20 -20 -20 -20 -20 -20 -20 -20 -20 -20 -20 -20 -20 -0 11 7 -3 -12 2 -6
-20 -20 -20 -20 -20 -20 -20 -20 -12 -20 -20 -20 -20 -20 -20 -20 -20 -20 -20 -20 -20 -20 -20 -20 -20 -20 -20 -20 -20 -20 -20 -20 -20 -20 -18 32 -4 -20 -20 1 -3 -20 -20 16
-14 -20 -20 -20 -20 -20 -20 -20 -3 -20 -20 -20 -20 -20 -20 -20 -20 -20 -20 -20 -20 -20 -20 -20 -20 -20 -20 -20 -20 -20 -20 -20 -20 -20 28 -3 -20 -4 -16 -17 -20 4 42 26
-19 -20 25 -20 -20 -20 -20 -20 -1 -20 -20 -20 -20 -20 -20 -20 -20 -20 -20 -20 -20 -20 -20 -20 -20 -20 -20 -20 -20 -20 -20 -20 -20 -20 -20 -20 -9 35 29 -11 12 7 10 24
-17 -20 20 -14 -20 -20 -20 9 15 25 26 -20 -20 -20 -20 -20 -20 -20 -20 -20 -20 -20 -20 -20 -20 -20 -20 -20 -20 -20 -20 -20 -20 -20 -20 -20 -20 -15 12 7 14 25 26 14
-20 -20 28 -13 -19 21 -20 22 24 23 11 24 28 0 -20 6 -8 8 -20 -20 -20 -20 -20 -20 -20 -20 -20 -20 -20 -20 -20 -20 -20 -20 -20 -20 -6 -20 -5 30 25 13 34 32
-16 18 25 29 -11 6 -20 13 -11 20 26 26 11 -11 -16 -19 -8 -20 -8 1 -20 -20 -20 -20 -20 -20 -20 -20 -20 -20 -20 7 -20 -20 -20 -10 4 0 11 -13 -6 10 24 25
7 33 30 28 -20 -20 -20 -1 -20 14 2 -9 17 -16 -20 -16 -6 5 -20 -20 -20 -20 -20 -20 -20 -20 -20 -20 -20 -12 -11 16 27 14 -11 5 5 14 19 27 29 22 31 34
30 39 39 32 10 -9 14 26 39 34 40 26 6 -20 -20 -20 -20 -20 -20 -20 -20 -20 -20 -20 -20 -20 -20 -20 -20 6 -12 20 25 31 48 29 31 27 3 3 11 31 39 42
13 26 38 21 28 1 33 43 30 22 18 17 25 4 2 -13 -20 -20 -20 -20 -20 -20 -20 -20 -20 -20 -20 -20 -20 -20 -20 -20 -20 23 53 49 32 15 5 -17 -19 23 36 41
21 41 22 31 29 31 39 38 18 3 -12 -6 -20 -20 -20 -20 -20 -20 -20 -20 -20 -20 -20 -20 -20 -20 -20 -20 -20 -19 -9 -3 -5 19 37 32 25 18 0 17 21 27 30 34
26 30 19 26 35 27 20 19 4 -15 -0 6 -20 -20 -20 -20 -20 -20 -20 -20 -20 -20 -20 -20 -20 -20 -20 -20 -20 -20 -20 -15 9 2 12 27 15 13 -1 9 20 30 12 7
20 31 32 28 29 22 11 8 9 5 -2 -20 -20 -20 -20 -20 -20 -20 -20 -20 -20 -20 -20 -20 -20 -20 -20 -20 -20 -20 -20 -5 6 -4 -12 -3 27 27 3 23 0 18 30 27
37 36 37 27 17 10 25 29 12 0 0 1 0 -0 -17 -19 -7 -14 -20 -20 -20 -20 -20 -20 -20 -20 -20 -20 -16 -18 -20 -19 -19 -20 -15 1 21 25 16 30 14 23 27 25
19 25 25 29 22 -1 14 6 -14 -14 -20 -20 -20 -20 -16 -3 -20 -20 -20 -20 -20 1 -2 -16 -18 -20 -20 -20 -20 -12 17 28 14 -8 -19 -10 24 42 29 28 36 29 24 28
24 24 23 19 2 -6 12 13 -8 -20 -20 -20 -7 -18 -20 -20 -20 -20 -20 -20 -20 -20 -20 -20 -20 -20 -20 -20 -20 -20 -19 20 -20 -14 6 21 23 20 21 21 16 16 19 26
6 8 4 -5 14 13 14 10 13 4 -0 9 12 15 9 1 -9 -20 -20 -20 -20 -20 -20 -20 -20 -20 -20 -20 -20 -15 -20 -20 -0 -20 -20 -3 0 -18 17 26 18 -6 20 25
-15 -16 -13 -9 -3 0 -3 -10 0 9 12 12 12 12 11 11 1 -20 -20 -20 -20 -20 -20 -20 -20 -20 -20 -18 -10 5 13 -9 -20 -20 -11 -20 -20 -5 7 -15 -20 -20 -20 -20
-20 -20 -20 -16 -15 -20 -19 -9 -6 -8 -2 -2 -8 -9 -11 -7 -2 -9 -20 -20 -20 -20 -20 -20 -20 -20 -20 -20 -20 1 9 1 -11 -17 -16 -20 -20 -20 -20 -20 -20 -20 -20 -20
-20 -20 -20 -20 -20 -20 -20 -20 -20 -20 -20 -20 -20 -20 -20 -20 -20 -20 -20 -20 -20 -20 -20 -20 -20 -20 -20 -20 -20 -20 -20 -19 -6 12 23 18 23 19 21 -0 -4 -11 -18 7
Wind_Speed
2 12 7 12 15 12 11 21 17 19 24 11 9 11 15 14 7 8 8 8 10 13 13 13 15 16 17 17 18 19 19 19 21 19 19 17 17 17 15 16 15 15 14 13
4 9 10 12 13 14 14 11 10 21 11 9 13 10 7 10 9 11 10 10 10 11 12 14 17 18 18 18 20 20 20 22 19 18 18 18 17 17 15 15 15 14 14 15
5 7 12 16 9 16 9 8 12 18 12 8 7 10 15 16 11 13 13 11 10 14 15 15 17 19 20 20 17 20 21 20 19 19 19 19 17 16 18 17 16 16 15 15
5 5 9 4 10 9 15 18 17 15 8 13 16 15 17 17 16 15 14 12 11 10 12 14 16 14 11 11 17 19 19 18 18 18 19 17 17 18 18 16 17 16 16 16
4 6 13 20 4 6 1 10 11 16 13 10 16 9 8 8 11 15 13 12 11 10 9 10 9 10 13 14 15 15 18 18 18 19 20 19 20 20 17 16 15 15 14 15
1 7 8 4 2 6 4 6 6 10 17 15 8 5 7 11 8 13 10 5 7 7 3 3 9 11 14 14 16 18 19 21 20 20 20 21 20 19 16 13 14 12 15 16
11 7 7 6 6 3 5 6 18 12 16 14 10 12 3 5 5 2 1 2 4 4 5 4 4 8 12 14 18 21 17 15 16 18 20 20 17 15 13 13 12 14 16 15
8 7 16 1 0 2 5 11 17 14 12 8 4 7 5 6 6 6 8 8 8 8 8 7 5 5 5 11 11 3 7 14 16 17 15 15 18 15 16 15 15 15 15 13
10 8 8 5 5 4 5 10 12 12 11 4 10 7 4 5 7 7 7 7 7 10 10 8 8 8 5 6 4 4 7 9 11 10 11 12 16 19 16 19 13 11 11 11
8 11 10 3 4 3 4 9 12 7 7 6 12 8 10 7 7 7 6 6 4 8 10 9 6 6 5 2 2 2 7 6 7 11 12 13 11 10 12 14 15 19 15 15
11 27 7 4 2 3 6 7 8 8 6 3 10 9 8 9 9 6 5 4 5 8 7 5 5 6 5 5 4 2 5 6 7 8 10 10 3 6 11 10 11 7 5 3
9 10 6 3 4 3 9 4 6 5 4 6 7 9 9 12 11 11 10 9 11 10 7 4 2 0 2 4 3 3 4 5 8 9 9 8 7 7 11 22 26 24 20 21
6 9 6 6 4 2 8 3 4 4 6 4 4 7 12 13 11 9 11 11 9 7 7 8 8 8 8 3 4 6 7 8 7 10 11 13 11 12 12 9 18 26 19 20
13 12 5 7 5 5 9 9 5 4 5 4 4 7 13 12 11 12 12 9 9 9 7 6 6 7 8 8 7 8 8 11 11 12 12 11 12 12 12 13 10 4 9 6
15 12 5 11 8 10 14 9 9 11 7 9 7 11 11 13 13 11 8 8 8 10 9 9 9 10 10 9 5 8 8 5 4 9 12 18 14 13 11 9 6 4 3 10
14 8 9 13 15 14 20 13 5 5 5 7 8 12 10 11 11 10 9 9 10 9 8 9 10 11 10 7 5 6 8 11 6 7 12 15 10 10 10 10 10 11 3 6
19 10 10 14 16 19 11 3 4 3 9 13 7 8 9 9 9 9 8 7 8 10 9 10 11 10 8 2 1 3 2 1 5 5 3 4 7 7 11 11 9 14 10 8
11 10 11 12 11 10 4 4 6 9 10 9 9 11 12 12 8 7 8 6 9 13 14 11 11 9 8 6 3 2 4 2 3 5 3 2 4 2 4 8 11 12 10 7
10 12 13 13 8 8 5 8 9 9 11 11 12 12 11 10 10 9 8 12 13 12 11 11 15 11 9 10 5 3 5 5 5 5 4 7 8 3 8 7 8 8 8 8
23 20 13 12 14 14 12 12 15 13 11 9 11 12 12 11 9 9 8 11 7 3 7 10 10 9 7 9 10 6 6 5 5 6 6 5 3 6 7 7 8 8 7 6
18 17 16 17 17 16 15 11 12 13 11 12 11 11 11 10 12 10 10 10 13 12 11 15 12 8 6 6 7 7 7 6 6 5 4 6 6 5 5 6 4 4 6 6
13 13 14 16 15 16 17 14 14 14 13 12 15 14 14 13 10 9 12 8 8 16 11 11 9 15 12 17 9 9 7 6 5 8 7 5 7 4 4 4 2 2 2 4
11 14 16 15 13 13 17 15 16 16 16 16 16 13 12 9 8 10 10 14 10 15 11 11 17 21 20 12 11 11 11 10 8 7 7 5 4 4 4 4 3 5 4 3
14 15 12 10 14 16 16 14 14 15 14 14 15 12 9 7 10 9 9 15 19 17 15 17 20 22 19 11 12 12 11 10 10 9 9 9 9 9 8 6 5 5 4 3
12 12 13 13 12 8 10 9 11 12 13 13 14 12 13 11 10 8 10 12 22 16 13 23 26 24 13 12 12 11 10 11 10 9 10 10 10 10 10 10 10 9 8 8
12 8 8 11 8 7 6 7 8 7 7 9 9 9 10 9 10 11 11 14 14 16 13 12 14 13 12 12 12 12 11 10 10 10 9 10 11 10 11 11 12 12 11 10
9 12 8 8 8 7 7 7 8 8 8 7 9 9 9 9 11 11 13 11 11 11 11 11 11 13 11 12 12 12 11 10 13 9 9 9 8 7 6 10 10 8 8 9
Wind_Direction
244 285 256 245 256 265 247 225 219 237 243 237 233 231 232 235 237 254 241 216 201 200 198 194 187 193 195 194 191 190 193 200 205 199 198 198 197 195 194 190 194 193 192 195
280 272 306 287 267 256 245 236 263 259 257 199 213 216 257 245 241 240 239 218 206 204 190 185 189 190 190 190 193 189 193 201 198 196 196 197 195 192 190 191 192 190 196 195
265 312 318 292 249 236 225 194 213 242 230 241 227 218 223 236 229 231 243 245 206 203 196 194 193 192 195 194 187 191 197 199 197 193 196 198 192 190 193 193 183 190 193 194
244 336 247 259 293 268 250 221 210 238 212 210 226 227 222 217 220 227 234 242 229 212 208 202 201 196 191 179 186 193 202 198 193 196 198 192 190 196 197 192 191 188 191 195
199 210 296 308 336 32 27 283 236 206 220 216 227 273 269 211 211 224 225 229 232 220 217 206 182 183 167 176 188 193 200 198 197 195 195 190 193 197 196 192 192 193 190 188
158 213 221 221 216 281 170 256 304 230 208 210 143 202 256 256 207 222 226 229 237 256 259 225 223 165 168 184 186 199 200 203 196 192 194 195 197 196 190 192 191 186 192 197
236 261 280 250 292 314 202 293 323 309 287 228 188 216 216 113 61 40 149 265 233 189 212 180 185 175 190 185 196 206 201 198 197 196 196 197 188 185 187 189 186 192 199 199
213 236 245 312 41 177 322 306 307 298 279 228 142 117 104 92 86 67 64 43 44 70 46 13 8 160 183 201 220 223 201 196 196 201 195 189 184 184 180 183 191 191 200 209
198 214 221 171 231 245 284 314 304 297 305 187 129 101 67 82 68 55 50 54 64 84 79 51 57 63 49 5 345 170 180 196 203 206 211 202 187 183 181 177 188 202 194 210
300 235 223 259 239 267 49 325 311 326 0 14 111 111 104 81 60 55 37 36 60 72 62 51 41 70 100 42 32 172 217 206 194 195 193 196 194 199 198 189 189 175 197 208
236 257 188 199 199 273 64 324 332 2 27 336 97 86 90 92 80 71 79 78 69 75 79 62 12 18 13 5 10 11 247 196 185 188 190 187 140 196 197 194 197 233 202 96
235 243 205 212 240 185 98 336 315 331 22 20 44 89 86 68 67 59 47 36 44 50 73 74 102 35 297 299 323 270 231 200 192 175 172 141 130 76 47 117 98 103 110 114
255 277 226 188 192 198 95 54 333 318 309 49 32 73 81 84 72 66 60 53 41 28 12 17 12 10 3 354 292 270 226 196 173 166 158 160 150 142 119 55 106 133 144 124
250 230 193 223 177 91 69 43 9 332 317 5 20 67 82 82 75 66 62 56 49 42 20 354 358 359 336 338 308 294 254 193 175 167 160 159 146 135 129 126 131 157 285 203
219 210 180 157 96 69 63 45 29 41 336 51 56 69 67 71 73 73 66 66 63 53 24 2 358 360 338 343 349 20 14 356 306 190 164 136 128 127 120 115 102 29 325 331
106 103 105 103 98 75 59 23 39 70 254 55 30 45 52 66 63 55 48 46 58 41 13 5 360 347 344 32 87 42 28 35 30 11 321 131 132 140 130 128 132 124 83 249
100 92 115 88 85 92 98 217 239 105 65 62 45 41 47 52 51 49 44 27 49 58 31 22 1 356 8 32 292 56 343 61 114 100 266 317 113 155 133 124 135 130 141 208
75 79 70 71 82 88 123 122 67 57 66 72 64 62 58 49 43 19 11 19 36 43 22 354 9 7 26 30 28 249 191 185 129 131 136 136 82 91 123 108 127 121 144 162
58 57 47 59 76 88 85 73 64 49 40 48 58 56 62 57 47 36 28 43 41 33 3 343 352 16 18 24 36 31 40 60 62 65 41 73 75 82 83 98 106 105 114 140
42 37 39 66 56 54 54 43 50 51 49 64 67 60 53 48 43 34 27 47 35 341 328 359 3 0 350 15 32 31 45 75 83 77 64 53 68 88 87 94 112 118 135 164
40 43 36 36 48 51 51 47 70 57 43 41 52 55 50 40 47 28 35 45 5 3 18 19 9 359 346 16 37 37 33 35 49 53 93 83 42 37 60 74 89 131 160 165
25 37 43 43 34 47 49 53 59 61 55 52 53 47 50 31 16 46 42 28 12 13 29 24 12 27 30 32 29 35 30 8 58 79 49 33 111 159 138 119 160 154 148 167
36 29 28 23 32 49 53 41 45 50 49 41 45 39 53 53 41 39 33 8 28 28 37 32 19 32 36 34 36 38 32 20 24 29 64 52 12 73 94 93 129 141 116 101
30 31 36 35 43 41 43 31 40 44 46 45 44 39 43 49 46 34 36 26 28 35 34 20 24 32 43 35 36 37 37 33 31 35 37 36 46 39 32 24 29 42 65 109
40 39 33 35 41 32 36 32 45 35 42 46 44 40 37 38 55 31 35 35 30 33 30 20 22 26 35 34 36 35 39 39 30 46 47 43 40 42 43 39 45 41 49 58
34 33 34 40 39 30 28 46 58 37 44 52 44 37 44 43 41 42 41 35 37 35 36 28 26 23 24 26 31 34 33 32 42 37 48 63 57 45 55 50 42 44 43 43
40 35 31 33 26 27 35 43 55 39 32 42 58 34 37 41 43 49 46 42 40 34 30 24 24 26 27 30 29 26 25 26 29 30 35 39 49 63 85 87 77 60 52 45